• In Kazakhstan
  • List of Countries
  • For 7 days
  • Water Temperature
  • Satellite Maps
  • Weather Map
  • News
  • Weather Widgets
  • user-avatar
    Login

    Hourly Weather Poluevo

    Today, 26 June, Wednesday

    Time Temperature Precipitation Wind Pressure Humidity
    00:00 +13°C° 0 mm 1 mps 755 mmHg 75%
    01:00 +12°C° 0 mm 1 mps 755 mmHg 76%
    02:00 +12°C° 0 mm 2 mps 755 mmHg 77%
    03:00 +13°C° 0 mm 2 mps 754 mmHg 78%
    04:00 +14°C° 0 mm 2 mps 754 mmHg 78%
    05:00 +14°C° 0 mm 2 mps 753 mmHg 78%
    06:00 +14°C° 0 mm 3 mps 753 mmHg 76%
    07:00 +15°C° 0 mm 4 mps 753 mmHg 75%
    08:00 +15°C° 0 mm 4 mps 753 mmHg 73%
    09:00 +17°C° 0 mm 5 mps 752 mmHg 69%
    10:00 +19°C° 0 mm 5 mps 752 mmHg 64%
    11:00 +20°C° 0 mm 5 mps 752 mmHg 59%
    12:00 +20°C° 0.3 mm 4 mps 751 mmHg 62%
    13:00 +20°C° 0.3 mm 4 mps 751 mmHg 65%
    14:00 +19°C° 0.3 mm 3 mps 750 mmHg 68%
    15:00 +19°C° 0.4 mm 3 mps 750 mmHg 71%
    16:00 +18°C° 0.4 mm 3 mps 749 mmHg 75%
    17:00 +17°C° 0.4 mm 3 mps 749 mmHg 79%
    18:00 +16°C° 0.1 mm 3 mps 748 mmHg 81%
    19:00 +14°C° 0.1 mm 3 mps 748 mmHg 84%
    20:00 +13°C° 0.1 mm 3 mps 748 mmHg 87%
    21:00 +12°C° 0 mm 3 mps 748 mmHg 89%
    22:00 +12°C° 0 mm 2 mps 747 mmHg 91%
    23:00 +12°C° 0 mm 2 mps 747 mmHg 93%

    Tomorrow, 27 June, Thursday

    Time Temperature Precipitation Wind Pressure Humidity
    00:00 +10°C° 0 mm 2 mps 747 mmHg 93%
    01:00 +11°C° 0 mm 1 mps 746 mmHg 93%
    02:00 +9°C° 0 mm 0 mps 746 mmHg 92%
    03:00 +11°C° 0 mm 1 mps 745 mmHg 92%
    04:00 +12°C° 0 mm 1 mps 745 mmHg 91%
    05:00 +12°C° 0 mm 2 mps 744 mmHg 90%
    06:00 +14°C° 0 mm 2 mps 744 mmHg 85%
    07:00 +14°C° 0 mm 3 mps 743 mmHg 80%
    08:00 +17°C° 0 mm 4 mps 743 mmHg 75%
    09:00 +18°C° 0 mm 4 mps 742 mmHg 70%
    10:00 +19°C° 0 mm 5 mps 741 mmHg 66%
    11:00 +20°C° 0 mm 6 mps 741 mmHg 61%
    12:00 +20°C° 0 mm 5 mps 740 mmHg 59%
    13:00 +20°C° 0 mm 5 mps 740 mmHg 57%
    14:00 +21°C° 0 mm 5 mps 739 mmHg 55%
    15:00 +20°C° 0 mm 5 mps 739 mmHg 58%
    16:00 +20°C° 0 mm 5 mps 738 mmHg 61%
    17:00 +20°C° 0 mm 4 mps 737 mmHg 65%
    18:00 +19°C° 0 mm 4 mps 737 mmHg 70%
    19:00 +17°C° 0 mm 4 mps 737 mmHg 76%
    20:00 +15°C° 0 mm 4 mps 736 mmHg 82%
    21:00 +14°C° 0 mm 4 mps 736 mmHg 83%
    22:00 +14°C° 0 mm 4 mps 736 mmHg 83%
    23:00 +13°C° 0 mm 4 mps 735 mmHg 84%

    Day after tomorrow, 28 June, Friday

    Time Temperature Precipitation Wind Pressure Humidity
    00:00 +13°C° 0 mm 5 mps 735 mmHg 85%
    01:00 +12°C° 0 mm 5 mps 735 mmHg 86%
    02:00 +12°C° 0 mm 5 mps 734 mmHg 87%
    03:00 +12°C° 0 mm 5 mps 734 mmHg 87%
    04:00 +12°C° 0 mm 5 mps 734 mmHg 86%
    05:00 +11°C° 0 mm 6 mps 733 mmHg 86%
    06:00 +12°C° 0.3 mm 5 mps 733 mmHg 86%
    07:00 +12°C° 0.3 mm 5 mps 733 mmHg 85%
    08:00 +12°C° 0.3 mm 5 mps 733 mmHg 85%
    09:00 +13°C° 0.5 mm 5 mps 733 mmHg 84%
    10:00 +13°C° 0.5 mm 5 mps 733 mmHg 83%
    11:00 +14°C° 0.5 mm 5 mps 733 mmHg 82%
    12:00 +13°C° 0.8 mm 5 mps 733 mmHg 85%
    13:00 +12°C° 0.8 mm 5 mps 733 mmHg 88%
    14:00 +10°C° 0.8 mm 5 mps 733 mmHg 92%
    15:00 +10°C° 0.9 mm 5 mps 733 mmHg 92%
    16:00 +10°C° 0.9 mm 5 mps 733 mmHg 93%
    17:00 +10°C° 0.9 mm 5 mps 732 mmHg 94%
    18:00 +10°C° 0.2 mm 6 mps 732 mmHg 94%
    19:00 +10°C° 0.2 mm 6 mps 732 mmHg 95%
    20:00 +10°C° 0.2 mm 6 mps 732 mmHg 95%
    21:00 +10°C° 0.5 mm 6 mps 732 mmHg 95%
    22:00 +10°C° 0.5 mm 6 mps 731 mmHg 95%
    23:00 +10°C° 0.5 mm 6 mps 731 mmHg 95%

    29 June, Saturday

    Time Temperature Precipitation Wind Pressure Humidity
    00:00 +10°C° 1.3 mm 7 mps 731 mmHg 95%
    01:00 +10°C° 1.3 mm 7 mps 731 mmHg 96%
    02:00 +10°C° 1.3 mm 7 mps 730 mmHg 96%
    03:00 +10°C° 0.9 mm 7 mps 730 mmHg 96%
    04:00 +9°C° 0.9 mm 7 mps 730 mmHg 96%
    05:00 +9°C° 0.9 mm 7 mps 730 mmHg 95%
    06:00 +9°C° 0.3 mm 8 mps 731 mmHg 95%
    07:00 +9°C° 0.3 mm 8 mps 731 mmHg 95%
    08:00 +7°C° 0.3 mm 8 mps 731 mmHg 95%
    09:00 +7°C° 0.4 mm 8 mps 732 mmHg 95%
    10:00 +7°C° 0.4 mm 8 mps 732 mmHg 95%
    11:00 +7°C° 0.4 mm 8 mps 733 mmHg 95%
    12:00 +7°C° 0.1 mm 8 mps 733 mmHg 94%
    13:00 +6°C° 0.1 mm 8 mps 734 mmHg 93%
    14:00 +6°C° 0.1 mm 8 mps 734 mmHg 92%
    15:00 +6°C° 0.2 mm 7 mps 735 mmHg 92%
    16:00 +6°C° 0.2 mm 7 mps 735 mmHg 93%
    17:00 +6°C° 0.2 mm 7 mps 736 mmHg 93%
    18:00 +7°C° 0 mm 6 mps 736 mmHg 91%
    19:00 +7°C° 0 mm 6 mps 737 mmHg 88%
    20:00 +8°C° 0 mm 5 mps 737 mmHg 86%
    21:00 +8°C° 0 mm 5 mps 737 mmHg 79%
    22:00 +8°C° 0 mm 4 mps 738 mmHg 73%
    23:00 +8°C° 0 mm 4 mps 738 mmHg 67%

    30 June, Sunday

    Time Temperature Precipitation Wind Pressure Humidity
    00:00 +8°C° 0 mm 4 mps 738 mmHg 69%
    01:00 +7°C° 0 mm 4 mps 739 mmHg 71%
    02:00 +6°C° 0 mm 4 mps 739 mmHg 73%
    03:00 +6°C° 0 mm 4 mps 740 mmHg 72%
    04:00 +7°C° 0 mm 4 mps 740 mmHg 71%
    05:00 +7°C° 0 mm 4 mps 740 mmHg 70%
    06:00 +10°C° 0 mm 4 mps 741 mmHg 66%
    07:00 +12°C° 0 mm 4 mps 741 mmHg 61%
    08:00 +14°C° 0 mm 4 mps 741 mmHg 57%
    09:00 +15°C° 0 mm 4 mps 742 mmHg 54%
    10:00 +18°C° 0 mm 4 mps 742 mmHg 52%
    11:00 +19°C° 0 mm 4 mps 742 mmHg 49%
    12:00 +19°C° 0 mm 4 mps 743 mmHg 49%
    13:00 +20°C° 0 mm 3 mps 743 mmHg 49%
    14:00 +20°C° 0 mm 3 mps 743 mmHg 49%
    15:00 +20°C° 0 mm 3 mps 743 mmHg 52%
    16:00 +20°C° 0 mm 2 mps 743 mmHg 56%
    17:00 +20°C° 0 mm 2 mps 743 mmHg 60%
    18:00 +18°C° 0 mm 2 mps 743 mmHg 66%
    19:00 +17°C° 0 mm 2 mps 744 mmHg 73%
    20:00 +15°C° 0 mm 2 mps 744 mmHg 79%
    21:00 +14°C° 0 mm 2 mps 744 mmHg 83%
    22:00 +13°C° 0 mm 2 mps 744 mmHg 87%
    23:00 +12°C° 0 mm 2 mps 745 mmHg 91%

    1 July, Monday

    Time Temperature Precipitation Wind Pressure Humidity
    00:00 +12°C° 0 mm 2 mps 745 mmHg 92%
    01:00 +10°C° 0 mm 2 mps 745 mmHg 93%
    02:00 +10°C° 0 mm 2 mps 745 mmHg 94%
    03:00 +12°C° 0 mm 2 mps 745 mmHg 93%
    04:00 +13°C° 0 mm 2 mps 745 mmHg 92%
    05:00 +13°C° 0 mm 2 mps 745 mmHg 90%
    06:00 +15°C° 0 mm 2 mps 745 mmHg 84%
    07:00 +17°C° 0 mm 2 mps 745 mmHg 79%
    08:00 +19°C° 0 mm 3 mps 745 mmHg 73%
    09:00 +19°C° 0 mm 3 mps 745 mmHg 72%
    10:00 +20°C° 0 mm 3 mps 744 mmHg 71%
    11:00 +20°C° 0 mm 4 mps 744 mmHg 69%
    12:00 +21°C° 0 mm 4 mps 744 mmHg 67%
    13:00 +22°C° 0 mm 4 mps 743 mmHg 64%
    14:00 +23°C° 0 mm 5 mps 743 mmHg 62%
    15:00 +23°C° 0 mm 4 mps 743 mmHg 65%
    16:00 +23°C° 0 mm 4 mps 743 mmHg 67%
    17:00 +23°C° 0 mm 4 mps 742 mmHg 70%
    18:00 +22°C° 0 mm 4 mps 742 mmHg 74%
    19:00 +21°C° 0 mm 4 mps 742 mmHg 79%
    20:00 +19°C° 0 mm 4 mps 742 mmHg 83%
    21:00 +19°C° 0 mm 4 mps 742 mmHg 83%
    22:00 +19°C° 0 mm 5 mps 741 mmHg 84%
    23:00 +17°C° 0 mm 5 mps 741 mmHg 85%
    Show more